Location: Hemaruka
(51.7801°N, 111.0917°W)
Time: 11:53:52
(UTC+00:00)

NOAA 15 - Visible Passes

Search period start: 08 December 2023 00:00
Search period end: 18 December 2023 00:00
Orbit: 796 x 811 km, 98.6° (Epoch: 08 December)

Date Brightness Start Highest point End Pass type
(mag) Time Alt. Az. Time Alt. Az. Time Alt. Az.
08 Dec 4.7 01:23:51 10° SE 01:28:55 49° ENE 01:34:00 10° N visible
08 Dec 6.3 03:04:13 10° SSW 03:08:53 31° W 03:13:33 10° NNW visible
08 Dec 7.7 13:35:08 10° ENE 13:36:51 11° E 13:38:34 10° ESE visible
09 Dec 5.2 00:58:51 10° ESE 01:03:30 32° ENE 01:08:09 10° N visible
09 Dec 5.4 02:38:00 10° S 02:43:07 48° W 02:48:15 10° NNW visible
10 Dec 5.7 00:34:11 10° ESE 00:38:11 22° NE 00:42:12 10° N visible
10 Dec 4.7 02:12:09 10° S 02:17:27 75° WSW 02:22:45 10° NNW visible
10 Dec 7.4 03:55:44 10° WSW 03:58:07 13° W 04:00:31 10° WNW visible
10 Dec 6.8 14:21:39 10° NE 14:26:08 28° E 14:30:36 10° SSE visible
11 Dec 6.1 00:09:56 10° E 00:12:57 16° NE 00:15:58 10° NNE visible
11 Dec 4.4 01:46:36 10° SSE 01:51:52 72° ENE 01:57:09 10° NNW visible
11 Dec 6.9 03:28:15 10° SW 03:32:10 21° W 03:36:06 10° NW visible
11 Dec 7.4 13:56:43 10° NE 14:00:15 18° E 14:03:45 10° SE visible
12 Dec 4.8 01:21:21 10° SE 01:26:23 47° ENE 01:31:25 10° N visible
12 Dec 6.2 03:01:37 10° SSW 03:06:19 32° W 03:11:02 10° NNW visible
12 Dec 7.8 13:32:55 10° ENE 13:34:15 11° E 13:35:34 10° E visible
13 Dec 5.3 00:56:23 10° ESE 01:00:59 31° ENE 01:05:34 10° N visible
13 Dec 5.4 02:35:26 10° S 02:40:33 50° W 02:45:42 10° NNW visible
14 Dec 5.7 00:31:45 10° ESE 00:35:40 22° NE 00:39:35 10° N visible
14 Dec 4.6 02:09:36 10° SSE 02:14:53 78° WSW 02:20:12 10° NNW visible
14 Dec 7.4 03:52:57 10° WSW 03:55:32 14° W 03:58:07 10° NW visible
14 Dec 6.9 14:19:08 10° NE 14:23:33 27° E 14:27:56 10° SSE visible
15 Dec 6.1 00:07:33 10° E 00:10:27 15° NE 00:13:20 10° NNE visible
15 Dec 4.5 01:44:05 10° SSE 01:49:19 69° ENE 01:54:34 10° N visible
15 Dec 6.8 03:25:34 10° SW 03:29:35 22° W 03:33:36 10° NW visible
15 Dec 7.4 13:54:15 10° NE 13:57:39 17° E 14:01:01 10° SE visible
16 Dec 4.8 01:18:51 10° SE 01:23:50 45° ENE 01:28:50 10° N visible
16 Dec 6.1 02:58:59 10° SSW 03:03:44 33° W 03:08:30 10° NNW visible
16 Dec 7.9 13:30:52 10° ENE 13:31:38 10° E 13:32:23 10° E visible
17 Dec 5.3 00:53:55 10° ESE 00:58:26 30° ENE 01:02:59 10° N visible
17 Dec 5.3 02:32:50 10° S 02:37:59 52° W 02:43:09 10° NNW visible
17 Dec 6.2 14:41:50 10° NNE 14:46:46 40° E 14:51:40 10° SSE visible
